Regional Weather Roundup
Issued by NWS Albany, NY

Home | Current Version | Previous Version | Text Only | Print | Product List | Glossary On
Versions: 1 2 3 4 5 6 7 8 9 10 11 12 13 14 15 16 17 18 19 20 21 22 23 24 25 26 27 28 29 30 31 32 33 34 35 36 37 38 39 40 41 42 43 44 45 46 47 48 49 50
000
ASUS41 KALY 250110
RWRALY

NEW YORK STATE HOURLY WEATHER ROUNDUP
NATIONAL WEATHER SERVICE ALBANY NY
900 PM EDT SUN MAY 24 2015

NOTE: "FAIR" INDICATES FEW OR NO CLOUDS BELOW 12,000 FEET WITH NO
SIGNIFICANT WEATHER AND/OR NO OBSTRUCTIONS TO VISIBILITY.

NYZ032-033-038>043-046>054-057>066-NYZ062>081-250200-
EAST


CITY           SKY/WX    TMP DP  RH WIND       PRES   REMARKS
ALBANY         CLOUDY    67  46  47 CALM      30.19R
GLENS FALLS    NOT AVBL
POUGHKEEPSIE   MOCLDY    69  47  45 CALM      30.21R
NEWBURGH       CLEAR     70  46  43 CALM      30.23R
MONTGOMERY     PTCLDY    61  52  72 CALM      30.22R
WHITE PLAINS   MOCLDY    65  51  60 CALM      30.25R
ISLIP          MOCLDY    61  48  62 SW13      30.26S
NEW YORK CITY  MOCLDY    67  51  56 S9        30.24R
CENTRAL PARK   PTCLDY    69  50  50 CALM      30.26S
$$

NYZ005>009-017-018-044>046-055-056-250200-
CENTRAL


CITY           SKY/WX    TMP DP  RH WIND       PRES   REMARKS
FULTON         MOCLDY    64  48  56 CALM      30.17S
SYRACUSE       CLOUDY    71  43  36 SW7       30.17S
ROME           MOCLDY    65  46  50 E5        30.18S
ELMIRA         CLOUDY    65  52  62 CALM      30.21R
BINGHAMTON     CLOUDY    68  37  32 S3        30.24R
MONTICELLO     PTCLDY    64  36  34 SW3       30.27R
$$

NYZ026>034-041>043-250200-
NORTH


CITY           SKY/WX    TMP DP  RH WIND       PRES   REMARKS
WATERTOWN      CLOUDY    65  42  43 S3        30.14S
FORT DRUM      NOT AVBL
MASSENA        MOCLDY    69  40  34 SW13      30.09R
SARANAC LAKE   MOCLDY    63  36  36 SW7       30.15S
PLATTSBURGH    MOCLDY    73  35  25 SW6       30.09R
$$

NYZ001>004-010>016-019>021-250200-
WEST


CITY           SKY/WX    TMP DP  RH WIND       PRES   REMARKS
NIAGARA FALLS  CLOUDY    68  45  43 S8        30.16S
BUFFALO        CLOUDY    66  43  43 SW7       30.18F
DUNKIRK        CLOUDY    67  52  58 CALM      30.18F
JAMESTOWN      CLOUDY    66  46  48 CALM      30.23F
WELLSVILLE     CLOUDY    68  45  43 CALM      30.27R
ROCHESTER      CLOUDY    71  45  39 SW6       30.17S
PENN YAN       CLOUDY    70  49  47 CALM      30.21R
$$

             KEY
       WCI = WIND CHILL INDEX
       VSB = VISIBILITY
       HX  = HEAT INDEX
$$



USA.gov is the U.S. government's official web portal to all federal, state and local government web resources and services.